| time (UTC) | temp F | wind direction | speed MPH | gust MPH | rain 1hr in | rain 24hr in | rain mn in | humidity % | barometer mb |
| 20260505023401 | 68 | 0 | 8.0 | 14.0 | 0.00 | 0.00 | 0.00 | 61 | 1002.1 |
| 20260505022902 | 68 | 4 | 9.0 | 14.0 | 0.00 | 0.00 | 0.00 | 61 | 1002.2 |
| 20260505021902 | 68 | 0 | 10.0 | 12.0 | 0.00 | 0.00 | 0.00 | 60 | 1002.1 |
| 20260505021401 | 68 | 0 | 11.0 | 15.0 | 0.00 | 0.00 | 0.00 | 60 | 1002.1 |
| 20260505020901 | 68 | 0 | 9.0 | 12.0 | 0.00 | 0.00 | 0.00 | 61 | 1002.1 |
| 20260505020402 | 68 | 0 | 9.0 | 13.0 | 0.00 | 0.00 | 0.00 | 60 | 1002.0 |
| 20260505015902 | 68 | 0 | 10.0 | 16.0 | 0.00 | 0.00 | 0.00 | 59 | 1001.9 |
| 20260505014402 | 69 | 0 | 9.0 | 13.0 | 0.00 | 0.00 | 0.00 | 58 | 1001.8 |
| 20260505013901 | 69 | 0 | 11.0 | 16.0 | 0.00 | 0.00 | 0.00 | 57 | 1001.7 |
| 20260505013402 | 69 | 0 | 11.0 | 15.0 | 0.00 | 0.00 | 0.00 | 57 | 1001.7 |
| 20260505012402 | 69 | 0 | 10.0 | 14.0 | 0.00 | 0.00 | 0.00 | 56 | 1001.7 |
| 20260505011901 | 70 | 0 | 12.0 | 16.0 | 0.00 | 0.00 | 0.00 | 55 | 1001.5 |
| 20260505011402 | 70 | 0 | 13.0 | 16.0 | 0.00 | 0.00 | 0.00 | 54 | 1001.5 |
| 20260505010902 | 70 | 0 | 12.0 | 16.0 | 0.00 | 0.00 | 0.00 | 55 | 1001.5 |
| 20260505010402 | 70 | 0 | 12.0 | 17.0 | 0.00 | 0.00 | 0.00 | 55 | 1001.5 |
| 20260505005902 | 70 | 8 | 11.0 | 16.0 | 0.00 | 0.00 | 0.00 | 54 | 1001.5 |
| 20260505005402 | 70 | 8 | 13.0 | 17.0 | 0.00 | 0.00 | 0.00 | 54 | 1001.5 |
| 20260505004902 | 71 | 5 | 10.0 | 15.0 | 0.00 | 0.00 | 0.00 | 55 | 1001.6 |
| 20260505003901 | 71 | 0 | 10.0 | 16.0 | 0.00 | 0.00 | 0.00 | 53 | 1001.6 |
| 20260505003402 | 71 | 0 | 10.0 | 16.0 | 0.00 | 0.00 | 0.00 | 53 | 1001.6 |
| 20260505002902 | 72 | 1 | 13.0 | 17.0 | 0.00 | 0.00 | 0.00 | 52 | 1001.5 |
| 20260505002402 | 72 | 0 | 17.0 | 22.0 | 0.00 | 0.00 | 0.00 | 51 | 1001.4 |
| 20260505001402 | 72 | 3 | 13.0 | 25.0 | 0.00 | 0.00 | 0.00 | 52 | 1001.4 |
| 20260505000902 | 72 | 339 | 14.0 | 20.0 | 0.00 | 0.00 | 0.00 | 52 | 1001.3 |
| 20260505000401 | 72 | 346 | 12.0 | 18.0 | 0.00 | 0.00 | 0.00 | 53 | 1001.3 |
| 20260504235402 | 72 | 351 | 13.0 | 15.0 | 0.00 | 0.00 | 0.00 | 59 | 1001.2 |
| 20260504234902 | 71 | 334 | 10.0 | 16.0 | 0.00 | 0.00 | 0.00 | 63 | 1001.2 |
| 20260504234402 | 71 | 350 | 12.0 | 17.0 | 0.00 | 0.00 | 0.00 | 64 | 1001.3 |
| 20260504233902 | 71 | 4 | 10.0 | 14.0 | 0.00 | 0.00 | 0.00 | 66 | 1001.4 |
| 20260504233401 | 71 | 2 | 10.0 | 13.0 | 0.00 | 0.00 | 0.00 | 66 | 1001.5 |
| 20260504232902 | 71 | 11 | 12.0 | 14.0 | 0.00 | 0.00 | 0.00 | 65 | 1001.7 |
| 20260504232402 | 71 | 10 | 12.0 | 15.0 | 0.00 | 0.00 | 0.00 | 65 | 1001.8 |
| 20260504231902 | 71 | 6 | 13.0 | 16.0 | 0.00 | 0.00 | 0.00 | 64 | 1001.9 |
| 20260504230902 | 71 | 3 | 14.0 | 20.0 | 0.00 | 0.00 | 0.00 | 63 | 1002.0 |
| 20260504230402 | 71 | 323 | 13.0 | 20.0 | 0.00 | 0.00 | 0.00 | 63 | 1002.0 |
| 20260504225901 | 71 | 10 | 12.0 | 21.0 | 0.00 | 0.00 | 0.00 | 64 | 1002.1 |
| 20260504225402 | 72 | 11 | 17.0 | 22.0 | 0.00 | 0.00 | 0.00 | 62 | 1002.2 |
| 20260504224902 | 72 | 296 | 17.0 | 22.0 | 0.00 | 0.00 | 0.00 | 62 | 1002.3 |
| 20260504224402 | 72 | 343 | 16.0 | 24.0 | 0.00 | 0.00 | 0.00 | 62 | 1002.4 |
| 20260504223902 | 72 | 233 | 17.0 | 24.0 | 0.00 | 0.00 | 0.00 | 62 | 1002.4 |
| 20260504223402 | 72 | 311 | 17.0 | 24.0 | 0.00 | 0.00 | 0.00 | 60 | 1002.6 |
| 20260504221902 | 72 | 2 | 14.0 | 21.0 | 0.00 | 0.00 | 0.00 | 60 | 1002.8 |
| 20260504220902 | 72 | 327 | 16.0 | 25.0 | 0.00 | 0.00 | 0.00 | 57 | 1002.7 |
| 20260504215902 | 73 | 345 | 17.0 | 25.0 | 0.00 | 0.00 | 0.00 | 55 | 1002.7 |
| 20260504215402 | 73 | 334 | 15.0 | 26.0 | 0.00 | 0.00 | 0.00 | 56 | 1002.8 |
| 20260504214402 | 72 | 304 | 18.0 | 28.0 | 0.00 | 0.00 | 0.00 | 56 | 1003.0 |
| 20260504213402 | 72 | 315 | 17.0 | 22.0 | 0.00 | 0.00 | 0.00 | 55 | 1003.1 |
| 20260504212902 | 72 | 351 | 20.0 | 30.0 | 0.00 | 0.00 | 0.00 | 54 | 1003.0 |
| 20260504212402 | 73 | 289 | 20.0 | 33.0 | 0.00 | 0.00 | 0.00 | 53 | 1003.0 |
| 20260504211902 | 73 | 330 | 16.0 | 29.0 | 0.00 | 0.00 | 0.00 | 53 | 1003.0 |
| 20260504211402 | 74 | 301 | 21.0 | 29.0 | 0.00 | 0.00 | 0.00 | 50 | 1003.0 |
| 20260504210902 | 74 | 351 | 19.0 | 29.0 | 0.00 | 0.00 | 0.00 | 51 | 1002.9 |
| 20260504205402 | 75 | 348 | 16.0 | 30.0 | 0.00 | 0.00 | 0.00 | 52 | 1002.9 |
| 20260504204903 | 75 | 303 | 18.0 | 30.0 | 0.00 | 0.00 | 0.00 | 51 | 1003.0 |
| 20260504204402 | 74 | 315 | 19.0 | 28.0 | 0.00 | 0.00 | 0.00 | 51 | 1003.0 |
| 20260504203902 | 75 | 321 | 18.0 | 28.0 | 0.00 | 0.00 | 0.00 | 53 | 1002.9 |
| 20260504202402 | 74 | 287 | 21.0 | 26.0 | 0.00 | 0.00 | 0.00 | 52 | 1003.1 |
| 20260504201903 | 74 | 319 | 21.0 | 26.0 | 0.00 | 0.00 | 0.00 | 51 | 1003.1 |
| 20260504200902 | 74 | 294 | 21.0 | 26.0 | 0.00 | 0.00 | 0.00 | 51 | 1003.0 |
| 20260504195903 | 74 | 256 | 18.0 | 26.0 | 0.00 | 0.00 | 0.00 | 51 | 1003.2 |
| 20260504195402 | 75 | 327 | 20.0 | 29.0 | 0.00 | 0.01 | 0.00 | 50 | 1003.2 |
| 20260504194902 | 75 | 297 | 16.0 | 26.0 | 0.00 | 0.02 | 0.00 | 52 | 1003.4 |
| 20260504193903 | 74 | 287 | 18.0 | 26.0 | 0.00 | 0.06 | 0.00 | 54 | 1003.6 |
| 20260504193402 | 73 | 333 | 18.0 | 24.0 | 0.00 | 0.07 | 0.00 | 53 | 1003.5 |
| 20260504192903 | 74 | 325 | 18.0 | 25.0 | 0.00 | 0.08 | 0.00 | 53 | 1003.5 |
| 20260504192402 | 74 | 289 | 20.0 | 30.0 | 0.00 | 0.09 | 0.00 | 52 | 1003.5 |
| 20260504191902 | 75 | 328 | 22.0 | 33.0 | 0.00 | 0.10 | 0.00 | 51 | 1003.6 |
| 20260504191402 | 75 | 329 | 20.0 | 30.0 | 0.00 | 0.10 | 0.00 | 54 | 1003.7 |
| 20260504190902 | 74 | 308 | 24.0 | 36.0 | 0.00 | 0.10 | 0.00 | 53 | 1003.6 |
| 20260504190403 | 75 | 311 | 22.0 | 35.0 | 0.00 | 0.10 | 0.00 | 52 | 1003.7 |
| 20260504185902 | 75 | 269 | 21.0 | 30.0 | 0.00 | 0.10 | 0.00 | 52 | 1003.8 |
| 20260504185402 | 75 | 324 | 22.0 | 35.0 | 0.00 | 0.10 | 0.00 | 52 | 1003.7 |
| 20260504184902 | 75 | 307 | 23.0 | 33.0 | 0.00 | 0.10 | 0.00 | 52 | 1003.6 |
| 20260504184402 | 75 | 329 | 19.0 | 28.0 | 0.00 | 0.10 | 0.00 | 53 | 1003.6 |
| 20260504183403 | 75 | 340 | 23.0 | 32.0 | 0.00 | 0.10 | 0.00 | 53 | 1003.7 |
| 20260504182903 | 75 | 335 | 17.0 | 26.0 | 0.00 | 0.10 | 0.00 | 55 | 1003.8 |
| 20260504182403 | 74 | 282 | 17.0 | 28.0 | 0.00 | 0.10 | 0.00 | 54 | 1003.7 |
| 20260504181902 | 74 | 342 | 21.0 | 31.0 | 0.00 | 0.10 | 0.00 | 53 | 1003.7 |
| 20260504181402 | 74 | 331 | 20.0 | 30.0 | 0.00 | 0.10 | 0.00 | 55 | 1003.7 |
| 20260504180902 | 74 | 336 | 19.0 | 30.0 | 0.00 | 0.10 | 0.00 | 55 | 1003.7 |
| 20260504180402 | 74 | 316 | 19.0 | 28.0 | 0.00 | 0.10 | 0.00 | 56 | 1003.8 |
| 20260504175902 | 74 | 338 | 21.0 | 33.0 | 0.00 | 0.10 | 0.00 | 56 | 1003.8 |
| 20260504175402 | 74 | 305 | 20.0 | 30.0 | 0.00 | 0.10 | 0.00 | 55 | 1003.7 |
| 20260504174902 | 74 | 321 | 18.0 | 28.0 | 0.00 | 0.10 | 0.00 | 56 | 1003.9 |
| 20260504174403 | 73 | 334 | 17.0 | 26.0 | 0.00 | 0.10 | 0.00 | 57 | 1003.7 |
| 20260504173902 | 73 | 297 | 18.0 | 31.0 | 0.00 | 0.10 | 0.00 | 58 | 1003.8 |
| 20260504173402 | 73 | 311 | 20.0 | 31.0 | 0.00 | 0.10 | 0.00 | 58 | 1003.8 |
| 20260504172902 | 73 | 313 | 17.0 | 30.0 | 0.00 | 0.10 | 0.00 | 59 | 1003.9 |
| 20260504172403 | 73 | 337 | 15.0 | 24.0 | 0.00 | 0.10 | 0.00 | 61 | 1004.0 |
| 20260504171903 | 72 | 336 | 20.0 | 26.0 | 0.00 | 0.10 | 0.00 | 59 | 1004.0 |
| 20260504171402 | 72 | 299 | 19.0 | 31.0 | 0.00 | 0.10 | 0.00 | 59 | 1004.0 |
| 20260504170902 | 72 | 343 | 18.0 | 29.0 | 0.00 | 0.10 | 0.00 | 60 | 1004.2 |
| 20260504170402 | 72 | 353 | 18.0 | 30.0 | 0.00 | 0.10 | 0.00 | 59 | 1004.3 |
| 20260504160403 | 70 | 352 | 14.0 | 21.0 | 0.00 | 0.10 | 0.00 | 63 | 1005.3 |
| 20260504150903 | 65 | 0 | 12.0 | 17.0 | 0.00 | 0.10 | 0.00 | 71 | 1005.9 |
| 20260504150403 | 65 | 9 | 12.0 | 17.0 | 0.00 | 0.10 | 0.00 | 71 | 1005.9 |
| 20260504140903 | 60 | 339 | 10.0 | 16.0 | 0.00 | 0.10 | 0.00 | 77 | 1006.4 |
| 20260504140403 | 60 | 347 | 11.0 | 16.0 | 0.00 | 0.10 | 0.00 | 77 | 1006.6 |
| 20260504130404 | 56 | 312 | 7.0 | 15.0 | 0.00 | 0.10 | 0.00 | 80 | 1006.9 |
| 20260504110403 | 49 | 216 | 3.0 | 5.0 | 0.00 | 0.10 | 0.00 | 82 | 1007.3 |
| 20260504100403 | 50 | 334 | 7.0 | 10.0 | 0.00 | 0.10 | 0.00 | 79 | 1007.3 |
| 20260504081903 | 51 | 334 | 7.0 | 12.0 | 0.00 | 0.10 | 0.00 | 78 | 1007.8 |
| 20260504081403 | 51 | 222 | 6.0 | 12.0 | 0.00 | 0.10 | 0.00 | 78 | 1007.8 |
| 20260504080904 | 51 | 265 | 6.0 | 10.0 | 0.00 | 0.10 | 0.00 | 78 | 1007.8 |
| 20260504080404 | 51 | 332 | 6.0 | 12.0 | 0.00 | 0.10 | 0.00 | 78 | 1007.9 |
| 20260504050401 | 51 | 309 | 5.0 | 10.0 | 0.00 | 0.10 | 0.00 | 79 | 1009.5 |
| 20260504045901 | 51 | 263 | 7.0 | 12.0 | 0.00 | 0.10 | 0.00 | 80 | 1009.6 |
| 20260504045401 | 50 | 235 | 6.0 | 9.0 | 0.00 | 0.10 | 0.00 | 81 | 1009.5 |
| 20260504044901 | 50 | 203 | 4.0 | 8.0 | 0.00 | 0.10 | 0.00 | 82 | 1009.6 |
| 20260504044402 | 49 | 193 | 4.0 | 7.0 | 0.00 | 0.10 | 0.00 | 83 | 1009.6 |
| 20260504043901 | 49 | 189 | 5.0 | 6.0 | 0.00 | 0.10 | 0.00 | 83 | 1009.6 |
| 20260504043401 | 49 | 186 | 5.0 | 6.0 | 0.00 | 0.10 | 0.00 | 83 | 1009.7 |
| 20260504042901 | 49 | 185 | 5.0 | 6.0 | 0.00 | 0.10 | 0.00 | 84 | 1009.8 |
| 20260504042402 | 49 | 187 | 4.0 | 5.0 | 0.00 | 0.10 | 0.00 | 83 | 1009.8 |
| 20260504041901 | 49 | 191 | 3.0 | 5.0 | 0.00 | 0.10 | 0.00 | 83 | 1009.9 |
| 20260504041401 | 50 | 186 | 3.0 | 6.0 | 0.00 | 0.10 | 0.00 | 82 | 1009.9 |
| 20260504040901 | 50 | 176 | 3.0 | 5.0 | 0.00 | 0.10 | 0.00 | 82 | 1009.9 |
| 20260504035901 | 50 | 174 | 5.0 | 6.0 | 0.00 | 0.10 | 0.10 | 82 | 1010.0 |
| 20260504035401 | 50 | 177 | 5.0 | 5.0 | 0.00 | 0.10 | 0.10 | 81 | 1010.1 |
| 20260504034901 | 51 | 178 | 5.0 | 6.0 | 0.00 | 0.10 | 0.10 | 80 | 1010.0 |
| 20260504034402 | 51 | 185 | 3.0 | 6.0 | 0.00 | 0.10 | 0.10 | 80 | 1010.1 |
| 20260504033901 | 51 | 183 | 5.0 | 6.0 | 0.00 | 0.10 | 0.10 | 80 | 1010.2 |
| 20260504033402 | 51 | 180 | 5.0 | 8.0 | 0.00 | 0.10 | 0.10 | 80 | 1010.2 |
| 20260504032902 | 51 | 186 | 5.0 | 8.0 | 0.00 | 0.10 | 0.10 | 79 | 1010.3 |
| 20260504032401 | 52 | 186 | 5.0 | 9.0 | 0.00 | 0.10 | 0.10 | 79 | 1010.3 |
| 20260504031402 | 52 | 179 | 5.0 | 8.0 | 0.00 | 0.10 | 0.10 | 79 | 1010.4 |
| 20260504030901 | 52 | 171 | 6.0 | 9.0 | 0.00 | 0.10 | 0.10 | 79 | 1010.4 |
| 20260504030402 | 52 | 2 | 5.0 | 8.0 | 0.00 | 0.10 | 0.10 | 79 | 1010.4 |
| 20260504025402 | 53 | 183 | 5.0 | 6.0 | 0.00 | 0.10 | 0.10 | 78 | 1010.5 |
| 20260504024902 | 53 | 182 | 5.0 | 6.0 | 0.00 | 0.10 | 0.10 | 78 | 1010.5 |
| 20260504024401 | 53 | 201 | 6.0 | 9.0 | 0.00 | 0.10 | 0.10 | 78 | 1010.5 |
| 20260504023902 | 53 | 347 | 5.0 | 9.0 | 0.00 | 0.10 | 0.10 | 79 | 1010.6 |